Location: Breungeshain
(50.5000°N, 9.2000°E)
Time: 18:39:35
(UTC+00:00)

ISS - Visible Passes

Search period start: 22 July 2018 00:00
Search period end: 01 August 2018 00:00
Orbit: 402 x 408 km, 51.6° (Epoch: 22 July)

Date Brightness Start Highest point End Pass type
(mag) Time Alt. Az. Time Alt. Az. Time Alt. Az.
22 Jul -3.9 00:07:40 10° WNW 00:10:58 88° NNE 00:14:16 10° ESE visible
22 Jul -3.0 01:44:19 10° W 01:47:14 29° SSW 01:50:09 10° SSE visible
22 Jul -3.0 20:02:59 10° SSW 20:05:55 31° SSE 20:08:53 10° E visible
22 Jul -3.9 21:38:56 10° WSW 21:42:13 85° NNW 21:45:32 10° ENE visible
22 Jul -3.7 23:15:32 10° W 23:18:50 75° N 23:20:52 21° E visible
23 Jul -2.1 00:52:05 10° W 00:53:22 21° W 00:53:22 21° W visible
23 Jul -3.9 20:46:49 10° WSW 20:50:05 75° SSE 20:53:23 10° ENE visible
23 Jul -3.6 22:23:22 10° W 22:26:39 70° N 22:29:10 16° E visible
23 Jul -2.5 23:59:55 10° WNW 00:01:45 30° W 00:01:45 30° W visible
24 Jul -3.6 21:31:11 10° W 21:34:29 71° N 21:37:46 10° E visible
24 Jul -3.8 23:07:46 10° WNW 23:10:47 73° W 23:10:47 73° W visible
25 Jul -3.7 20:39:00 10° W 20:42:17 80° N 20:45:35 10° ENE visible
25 Jul -3.8 22:15:36 10° WNW 22:18:53 79° N 22:20:01 38° E visible
25 Jul -1.3 23:52:10 10° W 23:52:38 13° W 23:52:38 13° W visible
26 Jul -3.6 21:23:24 10° W 21:26:41 71° N 21:29:20 15° E visible
26 Jul -2.6 22:59:56 10° WNW 23:01:57 32° W 23:01:57 32° W visible
27 Jul -3.5 20:31:11 10° W 20:34:28 70° N 20:37:45 10° E visible
27 Jul -4.0 22:07:45 10° WNW 22:11:02 78° SSW 22:11:19 69° SE visible
28 Jul -3.8 21:15:33 10° WNW 21:18:51 84° NNE 21:20:44 23° E visible
28 Jul -1.7 22:52:10 10° W 22:53:21 19° W 22:53:21 19° W visible
29 Jul -3.6 20:23:19 10° W 20:26:36 73° N 20:29:53 10° E visible
29 Jul -3.4 21:59:52 10° W 22:02:47 47° SW 22:02:47 47° SW visible
30 Jul -3.9 21:07:37 10° WNW 21:10:53 70° SSW 21:12:14 32° SE visible
30 Jul -1.1 22:44:37 10° W 22:44:52 11° W 22:44:52 11° W visible
31 Jul -3.8 20:15:23 10° WNW 20:18:40 90° NNE 20:21:42 12° ESE visible
31 Jul -2.4 21:52:03 10° W 21:54:20 26° SW 21:54:20 26° SW visible
